Time,TemperatureF,DewpointF,PressureIn,WindDirection,WindDirectionDegrees,WindSpeedMPH,WindSpeedGustMPH,Humidity,HourlyPrecipIn,Conditions,Clouds,dailyrainin,SoftwareType,DateUTC
2013-03-31 00:00:00,44.4,37.9,30.25,WNW,292,3.3,8.7,78,0.00,,,0.00,WUHU21636XXSP,2013-03-31 05:00:00,
2013-03-31 00:10:00,43.9,37.8,30.25,WNW,292,4.6,5.5,79,0.00,,,0.00,WUHU21636XXSP,2013-03-31 05:10:00,
2013-03-31 00:20:00,43.5,37.8,30.25,NW,315,3.5,6.2,80,0.00,,,0.00,WUHU21636XXSP,2013-03-31 05:20:00,
2013-03-31 00:30:00,43.3,37.8,30.26,NW,315,0.0,8.2,81,0.00,,,0.00,WUHU21636XXSP,2013-03-31 05:30:00,
2013-03-31 00:40:00,42.8,37.2,30.26,NW,315,3.1,3.1,81,0.00,,,0.00,WUHU21636XXSP,2013-03-31 05:40:00,
2013-03-31 00:50:00,42.4,36.7,30.26,NW,315,2.2,6.4,80,0.00,,,0.00,WUHU21636XXSP,2013-03-31 05:50:00,
2013-03-31 01:00:00,42.3,36.7,30.26,WNW,292,0.8,3.5,81,0.00,,,0.00,WUHU21636XXSP,2013-03-31 06:00:00,
2013-03-31 01:10:00,41.9,36.3,30.26,NW,315,0.0,3.1,81,0.00,,,0.00,WUHU21636XXSP,2013-03-31 06:10:00,
2013-03-31 01:20:00,41.7,36.1,30.26,NW,315,1.5,2.9,81,0.00,,,0.00,WUHU21636XXSP,2013-03-31 06:20:00,
2013-03-31 01:30:00,41.4,36.1,30.26,NW,315,5.1,5.1,82,0.00,,,0.00,WUHU21636XXSP,2013-03-31 06:30:00,
2013-03-31 01:40:00,41.2,36.3,30.25,WNW,292,3.5,11.1,83,0.00,,,0.00,WUHU21636XXSP,2013-03-31 06:40:00,
2013-03-31 01:50:00,40.8,36.0,30.25,WNW,292,3.3,9.1,83,0.00,,,0.00,WUHU21636XXSP,2013-03-31 06:50:00,
2013-03-31 02:00:00,40.6,35.8,30.26,NW,315,0.4,4.9,83,0.00,,,0.00,WUHU21636XXSP,2013-03-31 07:00:00,
2013-03-31 02:10:00,40.3,35.4,30.26,NW,315,5.3,5.3,83,0.00,,,0.00,WUHU21636XXSP,2013-03-31 07:10:00,
2013-03-31 02:20:00,40.1,35.2,30.26,NW,315,0.0,5.3,83,0.00,,,0.00,WUHU21636XXSP,2013-03-31 07:20:00,
2013-03-31 02:30:00,39.7,34.5,30.26,NW,315,0.8,3.1,83,0.00,,,0.00,WUHU21636XXSP,2013-03-31 07:30:00,
2013-03-31 02:40:00,39.6,34.7,30.26,WNW,292,3.8,3.8,83,0.00,,,0.00,WUHU21636XXSP,2013-03-31 07:40:00,
2013-03-31 02:50:00,39.6,34.7,30.26,NW,315,0.0,9.3,83,0.00,,,0.00,WUHU21636XXSP,2013-03-31 07:50:00,
2013-03-31 03:00:00,39.2,34.3,30.26,WNW,292,4.0,8.0,83,0.00,,,0.00,WUHU21636XXSP,2013-03-31 08:00:00,
2013-03-31 03:10:00,38.8,34.0,30.26,NW,315,6.2,10.5,83,0.00,,,0.00,WUHU21636XXSP,2013-03-31 08:10:00,
2013-03-31 03:20:00,38.8,34.3,30.26,WNW,292,0.8,10.0,84,0.00,,,0.00,WUHU21636XXSP,2013-03-31 08:20:00,
2013-03-31 03:30:00,38.5,33.6,30.25,WNW,292,4.6,4.6,83,0.00,,,0.00,WUHU21636XXSP,2013-03-31 08:30:00,
2013-03-31 03:40:00,38.3,33.4,30.25,WNW,292,2.9,5.8,83,0.00,,,0.00,WUHU21636XXSP,2013-03-31 08:40:00,
2013-03-31 03:50:00,38.1,33.3,30.25,WNW,292,3.1,3.8,83,0.00,,,0.00,WUHU21636XXSP,2013-03-31 08:50:00,
2013-03-31 04:00:00,37.9,33.1,30.25,WNW,292,6.0,6.0,83,0.00,,,0.00,WUHU21636XXSP,2013-03-31 09:00:00,
2013-03-31 04:10:00,37.8,33.3,30.25,NW,315,0.4,6.0,84,0.00,,,0.00,WUHU21636XXSP,2013-03-31 09:10:00,
2013-03-31 04:20:00,37.8,33.3,30.25,WNW,292,4.9,9.8,84,0.00,,,0.00,WUHU21636XXSP,2013-03-31 09:20:00,
2013-03-31 04:30:00,37.6,33.1,30.24,NW,315,1.7,4.9,84,0.00,,,0.00,WUHU21636XXSP,2013-03-31 09:30:00,
2013-03-31 04:40:00,37.6,33.1,30.24,NW,315,2.9,2.9,84,0.00,,,0.00,WUHU21636XXSP,2013-03-31 09:40:00,
2013-03-31 04:50:00,37.2,32.7,30.24,WNW,292,3.1,3.1,83,0.00,,,0.00,WUHU21636XXSP,2013-03-31 09:50:00,
2013-03-31 05:00:00,37.0,32.5,30.24,WNW,292,3.5,6.7,84,0.00,,,0.00,WUHU21636XXSP,2013-03-31 10:00:00,
2013-03-31 05:10:00,37.2,32.7,30.24,WNW,292,1.3,4.4,84,0.00,,,0.00,WUHU21636XXSP,2013-03-31 10:10:00,
2013-03-31 05:20:00,37.2,32.7,30.24,WNW,292,3.3,3.3,84,0.00,,,0.00,WUHU21636XXSP,2013-03-31 10:20:00,
2013-03-31 05:31:00,37.0,32.5,30.24,NW,315,3.8,5.5,84,0.00,,,0.00,WUHU21636XXSP,2013-03-31 10:31:00,
2013-03-31 05:41:00,37.0,32.5,30.24,WNW,292,5.1,10.0,84,0.00,,,0.00,WUHU21636XXSP,2013-03-31 10:41:00,
2013-03-31 05:51:00,37.0,32.5,30.24,WNW,292,0.0,9.6,84,0.00,,,0.00,WUHU21636XXSP,2013-03-31 10:51:00,
2013-03-31 06:01:00,37.2,32.7,30.24,WNW,292,0.0,0.0,84,0.00,,,0.00,WUHU21636XXSP,2013-03-31 11:01:00,
2013-03-31 06:11:00,37.2,32.7,30.24,NW,315,0.0,0.4,83,0.00,,,0.00,WUHU21636XXSP,2013-03-31 11:11:00,
2013-03-31 06:21:00,36.7,31.8,30.25,North,0,0.0,4.0,83,0.00,,,0.00,WUHU21636XXSP,2013-03-31 11:21:00,
2013-03-31 06:31:00,36.7,31.8,30.25,North,0,0.0,0.0,83,0.00,,,0.00,WUHU21636XXSP,2013-03-31 11:31:00,
2013-03-31 06:41:00,37.0,32.2,30.24,North,0,0.0,0.0,83,0.00,,,0.00,WUHU21636XXSP,2013-03-31 11:41:00,
2013-03-31 06:51:00,37.0,32.2,30.24,North,0,0.0,0.0,82,0.00,,,0.00,WUHU21636XXSP,2013-03-31 11:51:00,
2013-03-31 07:01:00,36.5,31.1,30.24,North,0,0.0,0.0,81,0.00,,,0.00,WUHU21636XXSP,2013-03-31 12:01:00,
2013-03-31 07:11:00,36.1,30.7,30.24,North,0,0.0,0.0,81,0.00,,,0.00,WUHU21636XXSP,2013-03-31 12:11:00,
2013-03-31 07:21:00,35.4,30.4,30.24,North,0,0.0,0.0,82,0.00,,,0.00,WUHU21636XXSP,2013-03-31 12:21:00,
2013-03-31 07:31:00,35.1,30.0,30.24,North,0,0.0,0.0,82,0.00,,,0.00,WUHU21636XXSP,2013-03-31 12:31:00,
2013-03-31 07:41:00,35.1,30.2,30.24,North,0,0.0,0.0,83,0.00,,,0.00,WUHU21636XXSP,2013-03-31 12:41:00,
2013-03-31 07:51:00,35.1,30.2,30.24,North,0,0.0,0.0,83,0.00,,,0.00,WUHU21636XXSP,2013-03-31 12:51:00,
2013-03-31 08:01:00,34.7,29.8,30.24,NW,315,0.8,0.8,83,0.00,,,0.00,WUHU21636XXSP,2013-03-31 13:01:00,
2013-03-31 08:11:00,34.9,30.7,30.25,WNW,292,2.4,4.0,85,0.00,,,0.00,WUHU21636XXSP,2013-03-31 13:11:00,
2013-03-31 08:21:00,35.2,31.1,30.25,WNW,292,3.3,3.3,85,0.00,,,0.00,WUHU21636XXSP,2013-03-31 13:21:00,
2013-03-31 08:31:00,35.4,31.5,30.25,NW,315,0.0,3.3,86,0.00,,,0.00,WUHU21636XXSP,2013-03-31 13:31:00,
2013-03-31 08:41:00,35.8,31.8,30.25,WNW,292,1.7,2.4,86,0.00,,,0.00,WUHU21636XXSP,2013-03-31 13:41:00,
2013-03-31 08:52:00,36.3,32.4,30.25,WNW,292,0.0,3.5,86,0.00,,,0.00,WUHU21636XXSP,2013-03-31 13:52:00,
2013-03-31 09:02:00,37.0,33.4,30.25,WNW,292,2.0,2.0,87,0.00,,,0.00,WUHU21636XXSP,2013-03-31 14:02:00,
2013-03-31 09:12:00,37.8,34.2,30.25,West,270,0.0,2.0,87,0.00,,,0.00,WUHU21636XXSP,2013-03-31 14:12:00,
2013-03-31 09:22:00,38.5,34.9,30.25,West,270,0.0,1.7,87,0.00,,,0.00,WUHU21636XXSP,2013-03-31 14:22:00,
2013-03-31 09:32:00,39.0,35.1,30.24,West,270,1.5,4.4,86,0.00,,,0.00,WUHU21636XXSP,2013-03-31 14:32:00,
2013-03-31 09:42:00,39.6,35.2,30.24,West,270,0.0,2.6,85,0.00,,,0.00,WUHU21636XXSP,2013-03-31 14:42:00,
2013-03-31 09:52:00,40.3,36.0,30.24,West,270,3.8,6.4,85,0.00,,,0.00,WUHU21636XXSP,2013-03-31 14:52:00,
2013-03-31 10:02:00,41.2,36.9,30.24,West,270,3.5,7.1,85,0.00,,,0.00,WUHU21636XXSP,2013-03-31 15:02:00,
2013-03-31 10:12:00,41.7,36.9,30.23,West,270,3.1,3.5,83,0.00,,,0.00,WUHU21636XXSP,2013-03-31 15:12:00,
2013-03-31 10:22:00,42.1,36.9,30.23,West,270,0.0,3.3,81,0.00,,,0.00,WUHU21636XXSP,2013-03-31 15:22:00,
2013-03-31 10:32:00,42.8,37.0,30.23,West,270,2.0,5.1,80,0.00,,,0.00,WUHU21636XXSP,2013-03-31 15:32:00,
2013-03-31 10:42:00,43.3,36.9,30.22,West,270,5.3,6.2,78,0.00,,,0.00,WUHU21636XXSP,2013-03-31 15:42:00,
2013-03-31 10:52:00,43.9,37.8,30.22,WSW,247,2.6,5.3,79,0.00,,,0.00,WUHU21636XXSP,2013-03-31 15:52:00,
2013-03-31 11:02:00,44.4,37.9,30.22,WSW,247,4.4,5.8,78,0.00,,,0.00,WUHU21636XXSP,2013-03-31 16:02:00,
2013-03-31 11:12:00,45.1,37.9,30.21,West,270,3.3,8.0,76,0.00,,,0.00,WUHU21636XXSP,2013-03-31 16:12:00,
2013-03-31 11:22:00,45.9,38.7,30.21,WSW,247,0.0,3.5,76,0.00,,,0.00,WUHU21636XXSP,2013-03-31 16:22:00,
2013-03-31 11:32:00,46.8,38.1,30.21,West,270,4.6,6.7,72,0.00,,,0.00,WUHU21636XXSP,2013-03-31 16:32:00,
2013-03-31 11:42:00,47.8,38.5,30.21,WSW,247,4.2,5.1,70,0.00,,,0.00,WUHU21636XXSP,2013-03-31 16:42:00,
2013-03-31 11:52:00,48.9,39.6,30.21,SW,225,6.9,7.1,70,0.00,,,0.00,WUHU21636XXSP,2013-03-31 16:52:00,
2013-03-31 12:02:00,50.0,39.7,30.21,WSW,247,3.1,9.6,68,0.00,,,0.00,WUHU21636XXSP,2013-03-31 17:02:00,
2013-03-31 12:12:00,51.1,41.2,30.20,SW,225,6.9,8.9,69,0.00,,,0.00,WUHU21636XXSP,2013-03-31 17:12:00,
2013-03-31 12:22:00,51.6,40.1,30.19,WSW,247,1.5,13.6,65,0.00,,,0.00,WUHU21636XXSP,2013-03-31 17:22:00,
2013-03-31 12:32:00,52.5,38.5,30.19,West,270,3.5,7.8,59,0.00,,,0.00,WUHU21636XXSP,2013-03-31 17:32:00,
2013-03-31 12:42:00,53.4,40.6,30.19,West,270,4.6,8.5,62,0.00,,,0.00,WUHU21636XXSP,2013-03-31 17:42:00,
2013-03-31 12:52:00,54.7,40.1,30.18,WSW,247,4.9,18.1,58,0.00,,,0.00,WUHU21636XXSP,2013-03-31 17:52:00,
2013-03-31 13:02:00,55.6,38.5,30.18,West,270,4.2,12.0,53,0.00,,,0.00,WUHU21636XXSP,2013-03-31 18:02:00,
2013-03-31 13:12:00,56.8,39.4,30.18,West,270,8.5,14.3,52,0.00,,,0.00,WUHU21636XXSP,2013-03-31 18:12:00,
2013-03-31 13:22:00,57.7,39.2,30.17,WSW,247,5.1,17.4,50,0.00,,,0.00,WUHU21636XXSP,2013-03-31 18:22:00,
2013-03-31 13:32:00,59.0,39.2,30.17,WSW,247,6.9,17.0,48,0.00,,,0.00,WUHU21636XXSP,2013-03-31 18:32:00,
2013-03-31 13:42:00,59.2,37.6,30.16,West,270,3.8,18.3,45,0.00,,,0.00,WUHU21636XXSP,2013-03-31 18:42:00,
2013-03-31 13:52:00,60.1,37.4,30.16,West,270,4.2,10.0,43,0.00,,,0.00,WUHU21636XXSP,2013-03-31 18:52:00,
2013-03-31 14:03:00,61.3,38.5,30.15,West,270,4.2,14.7,43,0.00,,,0.00,WUHU21636XXSP,2013-03-31 19:03:00,
2013-03-31 14:13:00,62.4,35.6,30.14,WNW,292,8.0,15.2,37,0.00,,,0.00,WUHU21636XXSP,2013-03-31 19:13:00,
2013-03-31 14:23:00,63.1,36.1,30.13,WSW,247,5.3,16.1,37,0.00,,,0.00,WUHU21636XXSP,2013-03-31 19:23:00,
2013-03-31 14:33:00,64.2,35.8,30.13,WSW,247,13.1,17.4,35,0.00,,,0.00,WUHU21636XXSP,2013-03-31 19:33:00,
2013-03-31 14:43:00,64.9,34.9,30.12,WSW,247,7.3,17.2,33,0.00,,,0.00,WUHU21636XXSP,2013-03-31 19:43:00,
2013-03-31 14:53:00,65.5,36.1,30.12,WSW,247,7.1,16.3,34,0.00,,,0.00,WUHU21636XXSP,2013-03-31 19:53:00,
2013-03-31 15:03:00,65.8,35.8,30.12,West,270,10.7,18.5,33,0.00,,,0.00,WUHU21636XXSP,2013-03-31 20:03:00,
2013-03-31 15:13:00,66.4,36.1,30.11,West,270,8.0,13.6,33,0.00,,,0.00,WUHU21636XXSP,2013-03-31 20:13:00,
2013-03-31 15:23:00,66.7,36.5,30.11,WSW,247,6.4,22.5,33,0.00,,,0.00,WUHU21636XXSP,2013-03-31 20:23:00,
2013-03-31 15:33:00,66.9,36.0,30.10,West,270,10.5,18.3,32,0.00,,,0.00,WUHU21636XXSP,2013-03-31 20:33:00,
2013-03-31 15:43:00,67.8,36.0,30.09,West,270,10.2,15.8,31,0.00,,,0.00,WUHU21636XXSP,2013-03-31 20:43:00,
2013-03-31 15:53:00,68.0,35.4,30.09,West,270,8.2,14.3,30,0.00,,,0.00,WUHU21636XXSP,2013-03-31 20:53:00,
2013-03-31 16:03:00,68.4,34.7,30.09,WSW,247,9.1,20.3,29,0.00,,,0.00,WUHU21636XXSP,2013-03-31 21:03:00,
2013-03-31 16:13:00,67.8,35.2,30.08,West,270,9.1,19.9,30,0.00,,,0.00,WUHU21636XXSP,2013-03-31 21:13:00,
2013-03-31 16:23:00,68.2,35.4,30.07,WNW,292,8.0,13.6,30,0.00,,,0.00,WUHU21636XXSP,2013-03-31 21:23:00,
2013-03-31 16:33:00,68.2,35.4,30.07,West,270,10.0,14.9,30,0.00,,,0.00,WUHU21636XXSP,2013-03-31 21:33:00,
2013-03-31 16:43:00,68.7,35.1,30.06,WSW,247,11.4,20.3,29,0.00,,,0.00,WUHU21636XXSP,2013-03-31 21:43:00,
2013-03-31 16:53:00,69.3,34.5,30.06,WNW,292,11.4,16.3,28,0.00,,,0.00,WUHU21636XXSP,2013-03-31 21:53:00,
2013-03-31 17:03:00,69.6,35.8,30.05,West,270,5.5,18.3,29,0.00,,,0.00,WUHU21636XXSP,2013-03-31 22:03:00,
2013-03-31 17:13:00,70.0,34.2,30.05,West,270,7.1,19.0,27,0.00,,,0.00,WUHU21636XXSP,2013-03-31 22:13:00,
2013-03-31 17:23:00,70.0,33.1,30.05,WNW,292,6.7,18.3,26,0.00,,,0.00,WUHU21636XXSP,2013-03-31 22:23:00,
2013-03-31 17:33:00,70.5,34.5,30.04,West,270,6.0,13.8,27,0.00,,,0.00,WUHU21636XXSP,2013-03-31 22:33:00,
2013-03-31 17:43:00,70.9,34.9,30.03,WSW,247,6.2,18.1,27,0.00,,,0.00,WUHU21636XXSP,2013-03-31 22:43:00,
2013-03-31 17:53:00,70.9,34.9,30.03,SW,225,7.1,15.8,27,0.00,,,0.00,WUHU21636XXSP,2013-03-31 22:53:00,
2013-03-31 18:03:00,71.1,35.1,30.03,West,270,4.0,11.8,27,0.00,,,0.00,WUHU21636XXSP,2013-03-31 23:03:00,
2013-03-31 18:13:00,71.2,33.1,30.02,West,270,5.3,5.5,25,0.00,,,0.00,WUHU21636XXSP,2013-03-31 23:13:00,
2013-03-31 18:23:00,70.3,32.4,30.02,WSW,247,5.3,12.5,25,0.00,,,0.00,WUHU21636XXSP,2013-03-31 23:23:00,
2013-03-31 18:33:00,69.4,33.6,30.02,SW,225,4.0,10.2,27,0.00,,,0.00,WUHU21636XXSP,2013-03-31 23:33:00,
2013-03-31 18:43:00,69.4,35.6,30.02,WSW,247,2.6,8.5,29,0.00,,,0.00,WUHU21636XXSP,2013-03-31 23:43:00,
2013-03-31 18:53:00,70.0,33.1,30.02,North,0,2.9,7.1,26,0.00,,,0.00,WUHU21636XXSP,2013-03-31 23:53:00,
2013-03-31 19:03:00,69.1,32.4,30.02,NNW,337,2.0,9.8,26,0.00,,,0.00,WUHU21636XXSP,2013-04-01 00:03:00,
2013-03-31 19:13:00,68.2,32.5,30.02,North,0,2.9,3.8,27,0.00,,,0.00,WUHU21636XXSP,2013-04-01 00:13:00,
2013-03-31 19:23:00,67.6,33.1,30.02,NW,315,2.6,4.4,29,0.00,,,0.00,WUHU21636XXSP,2013-04-01 00:23:00,
2013-03-31 19:33:00,67.6,35.1,30.03,NNW,337,5.3,6.9,30,0.00,,,0.00,WUHU21636XXSP,2013-04-01 00:33:00,
2013-03-31 19:43:00,67.1,32.5,30.02,North,0,5.1,12.9,28,0.00,,,0.00,WUHU21636XXSP,2013-04-01 00:43:00,
2013-03-31 19:53:00,65.8,31.6,30.03,NNW,337,7.1,16.5,28,0.00,,,0.00,WUHU21636XXSP,2013-04-01 00:53:00,
2013-03-31 20:03:00,64.9,30.7,30.03,North,0,7.1,15.8,28,0.00,,,0.00,WUHU21636XXSP,2013-04-01 01:03:00,
2013-03-31 20:13:00,63.9,29.8,30.03,NNW,337,8.0,11.1,28,0.00,,,0.00,WUHU21636XXSP,2013-04-01 01:13:00,
2013-03-31 20:23:00,62.8,27.9,30.04,North,0,6.9,12.5,27,0.00,,,0.00,WUHU21636XXSP,2013-04-01 01:23:00,
2013-03-31 20:33:00,62.2,28.4,30.04,North,0,4.4,12.0,28,0.00,,,0.00,WUHU21636XXSP,2013-04-01 01:33:00,
2013-03-31 20:43:00,61.2,28.4,30.05,North,0,4.0,10.9,29,0.00,,,0.00,WUHU21636XXSP,2013-04-01 01:43:00,
2013-03-31 20:53:00,60.4,27.9,30.05,North,0,9.1,13.1,29,0.00,,,0.00,WUHU21636XXSP,2013-04-01 01:53:00,
2013-03-31 21:03:00,59.5,28.0,30.05,North,0,4.9,12.5,30,0.00,,,0.00,WUHU21636XXSP,2013-04-01 02:03:00,
2013-03-31 21:13:00,59.2,28.4,30.06,North,0,11.6,23.4,31,0.00,,,0.00,WUHU21636XXSP,2013-04-01 02:13:00,
2013-03-31 21:23:00,59.5,30.2,30.07,NE,45,12.3,24.3,33,0.00,,,0.00,WUHU21636XXSP,2013-04-01 02:23:00,
2013-03-31 21:33:00,59.0,33.3,30.09,NNE,22,9.8,25.0,38,0.00,,,0.00,WUHU21636XXSP,2013-04-01 02:33:00,
2013-03-31 21:43:00,57.6,32.5,30.10,ENE,67,8.9,27.2,39,0.00,,,0.00,WUHU21636XXSP,2013-04-01 02:43:00,
2013-03-31 21:53:00,55.8,31.6,30.11,NE,45,8.7,25.2,40,0.00,,,0.00,WUHU21636XXSP,2013-04-01 02:53:00,
2013-03-31 22:03:00,54.1,32.0,30.12,ENE,67,12.5,33.7,43,0.00,,,0.00,WUHU21636XXSP,2013-04-01 03:03:00,
2013-03-31 22:13:00,52.3,30.9,30.13,ENE,67,17.4,29.3,44,0.00,,,0.00,WUHU21636XXSP,2013-04-01 03:13:00,
2013-03-31 22:23:00,50.4,29.7,30.15,ENE,67,12.5,32.8,45,0.00,,,0.00,WUHU21636XXSP,2013-04-01 03:23:00,
2013-03-31 22:33:00,49.1,28.9,30.16,ENE,67,19.0,33.5,46,0.00,,,0.00,WUHU21636XXSP,2013-04-01 03:33:00,
2013-03-31 22:43:00,48.6,28.9,30.18,NE,45,20.5,27.9,47,0.00,,,0.00,WUHU21636XXSP,2013-04-01 03:43:00,
2013-03-31 22:53:00,47.8,28.9,30.19,ENE,67,13.1,25.0,48,0.00,,,0.00,WUHU21636XXSP,2013-04-01 03:53:00,
2013-03-31 23:03:00,46.9,28.6,30.19,East,90,14.7,30.1,49,0.00,,,0.00,WUHU21636XXSP,2013-04-01 04:03:00,
2013-03-31 23:14:00,46.0,27.9,30.20,NNE,22,11.4,31.9,49,0.00,,,0.00,WUHU21636XXSP,2013-04-01 04:14:00,
2013-03-31 23:24:00,45.1,27.5,30.20,ENE,67,14.9,32.8,50,0.00,,,0.00,WUHU21636XXSP,2013-04-01 04:24:00,
2013-03-31 23:34:00,44.2,27.1,30.21,ENE,67,13.8,26.3,51,0.00,,,0.00,WUHU21636XXSP,2013-04-01 04:34:00,
2013-03-31 23:44:00,43.3,26.8,30.22,NE,45,12.0,26.3,52,0.00,,,0.00,WUHU21636XXSP,2013-04-01 04:44:00,
2013-03-31 23:54:00,43.2,26.6,30.22,East,90,11.8,23.2,52,0.00,,,0.00,WUHU21636XXSP,2013-04-01 04:54:00,